User: anonymous   Login
Location: Enborne
(51.3833°N, 1.3667°W)
Time: 23:39:30
(UTC+00:00)
Language:

USA 234 - Orbit

View from above orbital plane
View from above orbital plane
View from above satellite
View from above satellite

Ground track
Ground track

The orbit data is extracted from the following two-line orbital elements,

1 38109U 12014A   20318.19993754 0.00000000  00000-0  00000-0 0    03
2 38109 122.9971 258.8833 0005000  51.1800 308.8200 13.41425557    09
Epoch (UTC): 13 November 2020 04:47:54
Eccentricity: 0.0005000
inclination: 122.9971°
perigee height: 1100 km
apogee height: 1108 km
right ascension of ascending node: 258.8833°
argument of perigee: 51.1800°
revolutions per day: 13.41425557
mean anomaly at epoch: 308.8200°
orbit number at epoch: 0

The dashed part of the orbit path shows where the satellite is in the earth's shadow,  

DLR